Location: Newark
(44.4156°N, 12.1972°E)
Time: 01:47:59
(UTC+00:00)

STARLINK-1122 - Pass Details

Date: 30 January 2020
Orbit: 349 x 350 km, 53.0° (Epoch: 17 February)

Event Time Altitude Azimuth Distance (km) Brightness Sun altitude
Rises 16:37:55 0° 307° (NW) 2,168 7.2 -4.3°
Reaches altitude 10° 16:40:10 10° 322° (NW) 1,323 5.8 -4.7°
Maximum altitude 16:42:39 24° 19° (NNE) 789 4.1 -5.1°
Drops below altitude 10° 16:45:07 10° 76° (ENE) 1,321 4.9 -5.5°
Enters shadow 16:45:45 - 82° (E) 1,543 5.3 -5.6°
